GFSNE_sfc_dewp_159.txt.gz
Dewpoint
71 71 71 71 71 71 69 68 67 63 64 69 69 72 74 73 72 70 68 67 66 66 66 66 66 68 68 69 70 70 71 71 72 72 72 72 71 71
71 71 71 71 70 69 70 69 69 67 64 68 69 70 70 73 72 70 68 66 66 65 65 65 66 66 66 67 67 68 68 69 69 70 70 70 71 71
72 70 71 71 72 71 71 70 69 70 66 68 70 70 70 72 73 70 67 65 65 64 64 64 64 64 64 64 64 64 66 67 67 68 68 69 69 69
70 71 70 71 70 71 69 70 70 71 69 66 69 70 70 71 71 69 69 67 65 64 63 62 61 61 60 61 61 61 62 62 63 64 66 66 66 66
71 71 70 70 70 70 71 70 70 71 70 68 67 70 70 71 70 70 65 64 64 63 61 61 60 60 59 59 58 57 57 59 59 60 61 62 63 63
72 72 71 70 70 70 71 70 71 69 69 68 68 68 70 70 70 67 64 64 62 59 60 60 60 60 59 59 58 56 55 55 56 56 57 57 58 58
72 72 72 71 69 70 71 70 70 70 69 69 68 68 68 68 67 68 67 65 63 62 59 59 57 53 53 54 55 54 53 53 53 53 53 53 54 55
72 72 70 69 67 66 66 66 67 67 67 67 67 66 65 65 66 67 66 63 61 63 59 56 55 53 52 52 53 53 52 51 52 52 52 52 52 52
72 71 72 72 68 66 64 64 64 63 65 66 65 64 63 62 64 64 63 62 62 62 60 57 58 55 55 53 53 53 52 51 51 50 49 48 48 48
71 71 71 71 70 66 65 63 59 58 61 63 62 59 59 58 62 65 62 61 61 63 62 56 57 56 56 54 53 52 51 50 49 48 46 46 46 46
70 70 71 70 65 66 65 60 58 55 56 57 57 55 54 55 59 65 63 60 59 60 62 58 57 55 55 54 54 54 52 52 50 48 47 46 44 44
66 63 64 65 61 62 64 62 60 57 54 54 53 54 55 58 60 59 62 61 59 58 60 58 57 56 54 55 54 53 52 52 50 49 48 47 46 42
66 63 61 59 59 59 62 64 62 60 61 60 59 59 59 57 57 57 57 57 56 56 57 58 58 58 58 55 54 53 52 51 49 48 49 48 47 46
67 64 61 57 57 58 61 57 57 60 59 59 59 57 56 57 57 56 55 56 56 56 55 56 53 51 52 53 55 56 54 51 49 49 48 48 48 48
64 61 55 53 53 55 56 57 59 61 61 58 54 53 55 57 57 57 57 57 54 53 53 53 52 50 48 48 45 48 55 54 52 54 53 51 50 48
59 58 59 60 58 58 59 60 61 61 57 54 53 53 54 53 55 57 55 53 52 53 54 53 49 46 46 50 42 41 43 44 53 54 54 55 55 54
60 61 61 60 60 60 60 60 60 59 57 55 54 54 49 48 46 47 51 53 52 52 50 47 51 52 48 48 41 43 42 41 45 46 44 45 47 55
59 59 58 58 58 58 58 58 58 58 54 53 51 51 51 47 44 47 46 44 44 44 43 45 42 43 48 43 49 44 41 40 44 42 43 41 41 52
58 57 57 57 57 57 57 54 51 51 51 50 49 47 45 43 46 44 47 46 45 41 44 43 39 39 39 43 43 49 43 43 42 41 41 40 40 43
58 57 57 57 56 55 52 51 51 51 48 47 48 48 46 46 43 41 42 41 41 44 45 43 42 42 40 41 43 45 48 42 42 42 39 41 45 50
57 58 58 57 55 54 52 51 50 51 50 47 46 45 44 41 40 40 41 43 43 44 46 43 43 48 45 47 44 45 46 47 47 42 43 41 40 39
55 58 54 53 52 52 53 52 51 50 49 46 45 45 44 44 41 41 41 41 41 44 42 41 47 43 45 44 43 43 43 45 46 48 48 45 39 38
54 52 52 52 54 54 52 50 51 49 48 46 46 47 48 45 47 46 44 45 46 43 44 42 45 47 43 42 41 39 39 43 43 43 42 48 49 50

GFSNE_sfc_dewp_162.txt.gz
Dewpoint
71 71 70 70 71 70 67 67 64 62 63 68 69 71 72 73 71 69 67 67 66 66 66 66 67 68 69 69 69 70 71 71 71 71 71 71 71 72
71 71 70 70 70 69 70 69 68 66 62 67 69 70 70 72 72 69 67 66 66 65 65 65 65 66 66 67 67 68 68 69 69 69 69 70 71 71
70 71 69 70 71 71 70 70 69 69 65 67 70 70 69 69 73 69 67 65 65 65 64 64 64 64 64 64 65 66 66 67 67 68 68 68 68 69
69 70 70 70 69 70 69 69 69 69 67 65 67 68 69 71 71 67 66 66 65 64 62 62 61 61 60 60 61 62 62 62 64 64 66 66 66 66
70 69 70 70 69 69 70 69 70 70 69 67 66 69 69 70 69 68 65 64 63 62 61 61 60 60 59 58 58 58 57 58 59 60 61 62 62 62
71 72 71 70 69 70 70 69 70 68 68 67 67 67 68 69 69 64 62 63 61 59 60 60 60 60 59 58 57 56 56 56 56 56 56 57 58 58
71 72 72 71 69 69 71 70 69 68 68 67 67 67 67 66 67 67 65 62 61 61 59 58 55 52 53 55 54 53 53 54 53 53 53 53 53 54
70 71 70 69 67 67 67 68 69 67 67 67 66 65 65 64 66 67 63 61 60 61 59 55 54 53 55 55 53 52 51 52 53 52 51 51 51 51
71 71 71 71 67 66 64 64 63 64 66 66 65 65 63 63 64 66 65 63 62 60 59 57 58 56 55 53 53 53 51 51 51 50 49 49 49 49
71 71 71 70 66 65 65 62 60 61 62 64 64 62 62 61 63 64 61 61 62 61 61 57 57 56 54 53 54 52 51 50 49 48 47 46 47 46
70 70 71 70 64 62 64 59 57 56 56 57 57 55 55 57 62 62 60 59 58 60 62 57 57 56 55 53 53 54 52 52 49 48 47 46 44 44
68 67 65 69 61 60 63 59 57 55 54 51 52 55 57 58 60 63 62 59 57 56 59 56 55 54 53 54 53 52 52 52 51 49 48 47 46 40
67 65 65 61 59 59 60 61 61 56 56 54 56 57 57 56 55 56 60 61 58 56 58 59 56 56 56 54 53 52 51 50 49 48 49 48 48 45
68 66 64 59 57 58 60 59 56 58 59 58 58 58 56 55 55 54 55 55 55 54 55 56 50 51 53 54 53 53 51 51 49 48 48 47 48 48
68 64 59 55 55 58 59 58 58 61 58 58 58 56 56 56 56 57 55 52 53 52 51 51 48 47 47 46 46 49 53 53 51 51 51 50 49 48
61 60 59 59 59 60 60 61 62 62 59 54 53 53 56 56 57 56 51 51 49 49 50 51 45 46 46 42 40 42 44 50 53 52 53 52 52 51
59 60 60 60 60 61 61 60 60 59 57 53 52 49 49 46 46 51 54 53 49 48 42 48 50 46 46 42 40 41 40 40 43 42 41 39 46 52
59 59 59 59 59 59 59 58 59 58 58 56 53 49 47 43 44 47 48 51 46 42 41 40 39 39 47 41 46 41 40 39 42 41 42 38 38 46
59 58 58 58 58 58 58 58 57 57 55 52 49 49 47 46 43 43 43 42 42 42 42 40 39 38 43 42 43 48 40 42 41 39 40 39 39 40
58 58 57 57 57 57 57 54 52 51 49 47 46 43 45 44 43 43 42 40 40 43 42 42 40 40 39 39 40 42 47 42 42 40 39 40 43 48
58 58 58 58 58 56 55 53 51 49 48 46 46 46 44 41 40 41 42 44 44 46 41 41 42 46 44 45 40 40 43 47 45 42 41 40 38 39
57 58 59 58 57 54 52 50 51 48 45 44 44 42 41 40 40 41 41 40 40 44 44 44 46 43 43 42 40 42 42 42 46 49 48 45 39 36
54 54 56 54 53 53 52 51 50 48 46 45 45 45 45 44 43 42 42 42 42 42 43 41 47 46 43 43 41 39 38 39 42 40 41 48 50 49

GFSNE_sfc_dewp_165.txt.gz
Dewpoint
70 70 70 70 70 70 67 68 63 61 63 68 69 71 71 72 71 69 67 67 66 65 65 66 67 68 69 69 70 70 71 71 71 71 71 71 72 72
70 69 70 70 70 69 70 69 67 64 62 66 68 70 71 73 72 68 67 66 65 65 65 65 66 66 66 67 68 68 68 69 69 69 70 70 70 70
70 70 69 69 70 70 70 70 68 67 64 66 68 69 69 68 71 68 66 64 65 64 64 64 63 64 64 65 65 65 66 66 67 68 68 68 68 68
69 69 70 72 69 69 69 68 68 69 67 65 67 68 68 70 70 66 66 65 64 63 62 62 61 61 61 61 62 62 62 63 64 64 65 66 66 66
69 69 69 70 69 69 69 68 68 70 68 66 66 68 69 70 68 66 64 63 62 62 61 61 60 60 59 59 59 59 58 59 59 60 60 61 61 61
71 71 70 70 69 69 69 69 68 68 67 66 65 66 67 69 68 64 62 62 61 59 61 60 60 59 58 58 58 58 56 55 55 55 57 57 58 58
71 71 71 71 70 69 70 69 69 67 67 66 66 66 66 68 66 65 63 61 61 61 59 56 52 52 53 54 53 54 54 54 54 53 53 52 53 55
69 70 71 70 69 67 67 68 69 68 67 66 65 65 65 65 66 66 61 60 59 61 59 57 53 53 55 55 53 51 52 53 53 52 51 51 51 52
70 70 70 71 68 67 66 66 65 65 66 67 65 65 64 64 65 65 64 61 61 60 59 56 58 56 55 54 54 53 51 51 51 50 50 49 49 49
71 71 70 69 67 66 64 63 63 62 63 66 65 64 64 63 64 65 64 62 61 60 60 57 58 56 53 52 53 52 50 50 48 47 46 46 47 46
70 70 70 70 65 63 64 61 59 59 57 58 58 57 59 60 62 62 60 61 60 61 61 57 57 55 56 55 54 53 52 51 48 47 46 44 44 44
69 69 65 69 62 61 64 61 59 58 54 52 54 57 58 57 62 62 61 59 57 58 61 57 57 55 54 54 52 52 51 52 51 49 48 47 45 39
68 68 69 62 59 59 61 63 62 60 56 52 55 56 56 57 59 59 62 60 59 57 60 57 55 55 55 53 53 51 51 50 50 48 49 47 47 45
68 69 67 59 57 58 60 60 58 58 58 56 57 57 54 54 54 55 57 57 55 55 58 55 53 57 55 53 53 52 50 50 49 48 48 47 48 48
65 66 61 56 57 58 60 60 58 61 59 56 56 56 54 53 54 52 51 51 51 50 49 50 49 51 51 52 52 53 52 52 51 51 51 51 50 49
62 63 62 60 59 62 62 60 62 62 60 58 59 56 54 55 53 50 47 48 47 48 49 50 45 44 41 40 42 45 49 50 51 51 50 48 50 51
58 60 60 61 61 61 62 62 62 60 58 58 58 57 56 56 53 53 51 51 45 43 46 49 48 45 42 41 40 41 41 41 43 42 41 39 42 50
59 59 59 59 59 59 59 59 59 58 57 57 55 55 52 51 50 50 51 48 43 41 41 40 41 43 44 40 43 39 39 38 41 41 41 37 38 42
59 59 58 58 59 59 59 58 57 58 57 57 55 53 51 49 46 48 50 43 41 40 39 39 38 41 43 38 41 46 39 41 41 39 39 39 39 40
58 58 58 58 58 58 57 57 56 55 55 53 52 49 46 44 44 45 45 41 41 42 41 41 40 40 41 40 39 41 46 41 42 40 39 40 42 46
56 57 58 57 57 57 55 55 55 53 51 49 45 45 45 44 43 43 42 43 44 44 40 40 41 46 43 44 38 38 41 47 44 42 41 39 39 39
58 58 58 58 58 57 56 55 54 52 48 46 45 45 43 42 42 42 43 43 43 44 41 43 45 44 43 40 39 40 41 41 46 49 48 45 40 38
56 55 58 59 57 55 53 51 50 48 45 45 45 43 42 41 41 42 42 42 41 43 44 40 45 44 42 42 41 39 39 39 41 41 42 48 50 49

GFSNE_sfc_dewp_168.txt.gz
Dewpoint
72 72 72 72 73 72 71 71 67 66 67 70 71 73 73 73 73 70 68 67 66 66 66 66 67 68 69 69 70 70 71 71 71 71 71 72 71 71
72 72 72 73 72 71 72 70 70 68 67 69 71 72 73 73 72 69 68 66 65 65 65 65 66 66 67 68 68 68 69 69 69 69 70 70 70 70
72 72 72 72 72 73 73 72 71 69 67 68 71 72 71 72 70 69 67 66 65 64 64 63 63 64 64 65 65 66 67 67 68 68 68 68 68 69
71 71 71 72 73 73 72 72 71 72 71 70 71 71 70 70 69 67 66 65 64 63 62 62 61 61 62 62 62 62 62 63 64 65 66 66 66 66
71 71 71 71 72 71 72 71 72 71 71 70 70 71 71 69 67 66 64 64 62 62 61 61 61 60 60 60 59 58 58 58 59 60 61 62 62 62
72 72 72 72 72 71 71 72 72 71 71 70 69 70 71 70 67 64 63 63 61 60 61 61 60 59 58 59 59 58 56 55 55 56 57 58 59 59
72 72 72 72 70 70 72 72 71 71 70 70 69 69 70 68 67 66 64 62 61 61 60 57 54 54 54 55 55 55 55 54 53 53 53 53 54 56
71 72 73 71 71 67 67 67 70 71 70 70 70 69 69 70 69 66 62 61 60 62 60 57 57 55 56 56 53 52 53 53 52 52 51 51 52 52
72 72 72 72 71 71 67 67 67 66 68 71 70 69 69 69 69 66 64 62 62 61 60 58 58 56 56 55 54 52 52 52 51 51 50 50 50 49
72 72 72 72 72 71 69 68 68 68 68 68 69 70 70 69 70 68 66 63 61 61 62 57 58 56 54 53 54 52 51 50 49 48 48 48 47 46
72 72 72 72 68 64 69 67 66 65 59 59 62 62 62 62 65 66 64 62 61 59 61 58 57 56 56 54 55 52 50 49 47 47 46 45 45 44
71 71 66 69 64 61 69 68 66 65 61 58 57 57 60 62 62 67 65 64 61 60 61 58 58 56 55 56 55 54 52 52 50 47 46 46 44 43
70 70 70 62 60 58 61 68 66 66 61 61 58 59 60 61 64 64 64 62 60 59 62 59 58 57 57 55 54 54 53 52 52 50 48 47 46 46
67 69 70 61 57 57 59 63 59 62 61 59 60 59 60 61 61 61 63 61 59 60 61 61 58 58 57 54 53 54 53 53 52 52 51 49 48 48
63 63 59 56 55 57 57 59 59 63 60 59 59 59 60 59 55 53 52 53 53 52 57 57 56 57 58 56 54 53 53 53 53 54 54 53 54 53
61 63 61 59 58 61 61 59 63 64 62 60 60 57 57 56 54 55 53 53 52 50 51 51 53 55 51 53 54 54 55 54 55 55 54 52 55 56
59 61 61 61 61 61 62 63 62 62 60 59 57 57 55 54 54 54 54 52 49 48 50 50 50 51 49 51 51 52 51 48 48 48 48 46 46 54
59 59 59 59 59 59 59 59 60 60 59 57 56 56 54 52 53 54 54 51 46 47 49 47 48 48 47 49 49 46 45 45 46 47 47 43 43 47
59 59 58 58 58 59 58 58 57 57 58 57 57 56 55 55 53 53 54 48 44 44 44 44 44 47 44 39 46 48 45 45 45 44 44 43 44 45
60 59 58 58 58 58 58 57 57 57 57 56 55 54 53 52 51 53 51 46 45 45 44 45 44 46 47 45 45 47 46 48 46 46 44 44 45 47
60 60 59 58 57 57 57 57 56 56 55 54 53 52 52 51 50 51 48 45 46 46 45 45 46 47 47 48 44 44 47 47 49 48 49 44 43 44
59 59 59 59 57 56 56 55 54 54 54 53 54 53 51 48 47 47 46 45 46 45 45 45 48 48 47 44 41 45 46 46 46 48 49 48 45 41
59 58 59 59 59 57 57 56 55 53 51 50 49 48 48 46 47 47 45 45 45 46 46 45 46 46 45 45 44 43 45 45 43 45 46 49 50 50

GFSNE_sfc_dewp_171.txt.gz
Dewpoint
75 74 77 71 72 72 72 70 73 65 67 68 70 73 73 71 73 71 70 67 66 66 66 67 67 68 69 70 70 71 71 71 71 71 72 72 71 71
75 75 76 73 72 71 71 71 70 74 70 67 69 72 73 71 72 72 70 67 65 65 65 65 66 67 67 68 68 69 69 70 70 70 70 70 70 70
75 74 74 75 73 74 75 77 75 70 73 73 71 73 74 72 71 70 69 68 65 64 64 63 63 64 65 65 66 67 67 68 68 68 69 69 69 69
72 73 72 70 75 75 71 75 73 74 73 71 74 75 73 73 71 70 67 66 65 63 62 62 62 62 62 62 62 63 63 64 65 66 66 67 67 67
72 72 73 73 73 71 75 76 76 73 74 73 74 75 71 70 68 67 66 65 62 62 61 61 61 61 61 60 59 59 58 59 60 61 62 63 63 63
72 73 73 74 74 74 75 75 75 75 75 74 74 73 71 71 68 65 64 64 62 61 61 61 61 60 60 60 59 57 56 56 56 57 58 59 60 61
72 73 73 73 71 71 72 75 75 74 75 74 74 68 69 69 68 67 66 64 62 62 61 60 58 56 55 56 57 55 55 55 54 54 54 55 56 57
70 70 73 72 71 68 68 68 71 75 73 71 71 68 73 70 70 68 65 62 61 62 60 57 56 56 55 56 53 53 54 54 53 52 52 53 53 53
72 71 70 69 71 73 69 66 66 66 68 75 71 71 74 75 73 69 67 65 66 63 62 58 57 58 57 56 53 52 53 52 52 52 52 51 50 50
72 73 73 73 73 73 73 72 73 73 72 70 72 73 73 72 73 71 70 68 64 64 63 59 60 57 55 56 55 52 52 51 50 50 50 49 48 48
73 73 73 73 69 65 73 72 72 72 64 61 61 63 64 65 68 70 67 64 62 60 62 60 58 56 54 53 54 51 51 49 48 48 48 47 47 46
72 73 66 70 65 62 71 73 71 72 71 66 66 63 64 66 64 70 68 65 63 60 60 59 57 57 55 57 55 51 47 48 48 48 46 45 45 43
70 70 70 62 59 58 59 71 71 71 70 70 68 67 66 68 68 68 70 67 64 62 62 61 59 57 56 53 54 55 53 51 50 47 48 47 46 46
69 69 70 58 56 55 58 60 60 61 72 70 69 68 65 64 67 68 68 65 62 63 64 64 59 56 55 52 50 54 54 53 53 52 52 50 48 49
66 64 58 56 55 58 56 57 58 63 66 64 63 62 62 63 64 60 58 57 56 60 60 59 62 62 61 58 56 56 52 53 53 54 54 55 54 53
62 64 62 59 57 61 62 62 63 63 65 63 64 64 59 57 56 56 55 54 53 52 54 56 57 60 60 62 57 53 53 53 55 56 56 53 55 55
56 64 64 64 64 64 64 65 63 63 62 60 58 56 55 54 54 54 53 53 52 51 52 53 53 56 55 57 55 54 55 55 56 54 50 45 46 48
61 61 60 60 59 60 60 61 61 61 59 57 55 54 53 53 53 54 53 52 51 52 53 51 48 48 48 50 53 55 51 48 48 50 46 40 39 43
61 60 60 60 59 58 58 57 57 58 58 56 55 54 53 53 53 53 52 52 51 53 52 48 47 45 43 41 46 47 45 44 45 44 43 41 40 41
61 61 61 60 59 59 58 57 57 57 57 57 56 55 54 53 53 53 53 51 48 46 45 46 47 48 44 42 41 43 47 45 44 44 44 45 46 48
60 60 61 61 61 60 58 58 58 57 57 57 56 55 55 54 55 55 55 47 46 45 45 44 46 49 50 49 44 43 46 47 50 49 48 45 42 43
60 61 61 61 61 59 58 57 56 56 56 56 55 54 54 53 52 53 54 47 43 43 43 46 49 48 48 43 39 44 43 47 48 49 49 49 42 39
60 60 60 60 59 58 57 57 56 56 56 56 55 55 54 51 50 50 51 49 46 44 45 44 45 46 43 42 44 40 46 46 42 42 44 51 50 50

GFSNE_sfc_dewp_174.txt.gz
Dewpoint
71 72 71 66 67 66 67 66 64 60 64 71 75 72 72 73 72 71 71 68 66 67 67 67 68 68 69 70 70 71 72 72 72 72 72 72 71 71
69 72 72 68 68 67 67 74 66 67 67 65 67 71 71 70 73 72 71 67 66 66 66 66 66 67 68 68 69 69 70 70 70 70 70 70 70 71
71 71 72 73 67 68 70 70 70 68 66 66 73 73 74 74 72 72 69 70 67 64 64 64 64 65 66 66 67 67 68 68 68 69 69 69 70 69
72 71 70 67 73 72 68 73 73 71 67 70 73 70 75 74 72 72 70 67 69 64 63 62 62 63 63 63 63 64 64 65 66 66 67 68 68 68
72 72 70 71 72 70 71 69 67 68 70 67 67 75 74 73 71 70 70 69 65 62 62 61 61 61 61 60 60 59 59 60 61 62 63 64 64 64
71 72 72 71 72 73 71 73 71 70 70 69 67 71 75 72 70 67 65 65 63 61 62 62 62 61 61 60 59 58 57 57 57 58 59 60 61 61
72 71 72 72 70 71 69 74 73 70 67 67 66 74 76 71 69 68 67 65 64 64 62 61 61 60 59 59 59 57 57 56 55 56 56 57 57 58
71 71 72 71 71 69 68 68 71 73 72 73 66 73 77 76 71 69 67 64 63 64 62 62 62 60 57 56 55 54 55 54 54 54 54 55 55 55
71 71 69 65 70 71 69 67 67 67 68 72 71 70 73 75 76 73 70 68 67 65 65 62 60 59 59 54 53 53 54 53 53 53 53 53 52 51
71 71 72 72 71 71 71 71 72 72 73 71 72 72 72 73 74 75 72 71 69 66 67 62 61 60 58 57 54 53 53 52 52 52 51 50 50 49
73 73 73 73 68 64 73 71 71 70 66 67 66 63 64 65 69 75 72 68 65 64 65 62 60 57 56 55 57 54 53 51 50 51 50 49 48 48
72 75 65 70 63 61 74 73 72 72 70 70 71 68 65 69 64 71 72 67 66 63 64 61 58 56 55 55 55 51 48 49 48 48 49 48 47 44
70 71 73 61 59 58 58 71 71 71 71 74 74 70 69 69 69 69 73 71 69 65 64 62 58 59 59 56 55 52 49 46 47 46 48 47 46 45
68 68 70 57 56 56 60 62 59 60 69 70 73 71 68 68 68 72 71 71 71 70 64 65 61 59 58 56 56 58 58 53 51 50 50 48 47 48
66 64 58 56 55 58 57 57 57 67 68 68 69 70 70 71 69 68 64 59 56 60 64 62 61 59 58 57 56 57 57 59 54 53 54 53 52 52
62 63 62 60 58 60 62 64 65 66 67 67 67 64 61 59 57 58 57 56 55 54 56 60 62 61 58 58 57 56 57 54 55 55 57 59 56 53
60 64 64 63 63 64 64 64 65 66 65 64 60 57 55 55 54 55 55 54 53 52 52 55 57 60 61 60 59 58 54 56 56 58 58 51 48 46
60 60 60 60 61 61 60 60 61 61 60 59 57 56 55 55 55 55 55 56 55 52 51 53 55 54 54 56 54 61 60 59 57 57 53 41 41 43
60 60 60 60 60 60 59 59 57 57 57 57 56 55 55 54 54 53 53 52 52 52 52 52 52 52 51 47 52 52 54 52 51 46 43 41 40 41
58 59 60 60 60 59 59 59 58 58 57 56 55 55 55 54 53 52 52 51 51 52 52 53 51 46 42 41 44 50 45 49 44 44 42 43 44 50
59 59 60 60 60 60 60 61 59 58 57 57 57 56 56 55 54 54 52 49 49 48 46 44 45 51 46 48 41 43 44 46 48 47 47 44 42 42
61 61 61 61 61 61 61 59 59 58 57 57 56 55 55 54 53 52 50 48 47 43 42 44 50 45 45 41 39 44 42 45 48 49 50 48 44 40
61 61 61 60 60 61 60 61 59 59 59 58 57 55 54 52 52 51 50 47 45 43 43 41 43 43 42 42 41 40 46 45 43 44 44 49 50 51